Location: Anuling
(14.1239°N, 120.8922°E)
Time: 06:23:16
(UTC+00:00)

CARTOSAT-1 - Pass Details

Date: 14 January 2026
Orbit: 594 x 598 km, 97.5° (Epoch: 7 February)

Event Time Altitude Azimuth Distance (km) Brightness Sun altitude
Rises 10:37:03 0° 151° (SSE) 2,830 6.9 -12.3°
Reaches altitude 10° 10:39:21 10° 142° (SE) 1,929 5.9 -12.8°
Maximum altitude 10:43:09 34° 77° (ENE) 979 4.0 -13.7°
Drops below altitude 10° 10:46:58 10° 11° (NNE) 1,930 5.8 -14.5°
Sets 10:49:16 0° 3° (N) 2,832 6.7 -15.1°
